TimeEDT,TemperatureF,Dew PointF,Humidity,Sea Level PressureIn,VisibilityMPH,Wind Direction,Wind SpeedMPH,Gust SpeedMPH,PrecipitationIn,Events,Conditions,WindDirDegrees,DateUTC
12:53 AM,59.0,53.1,81,30.16,10.0,West,3.5,-,N/A,,Mostly Cloudy,280,2013-07-30 04:53:00
1:53 AM,55.9,53.1,90,30.16,10.0,WSW,4.6,-,N/A,,Clear,250,2013-07-30 05:53:00
2:53 AM,57.0,52.0,83,30.16,10.0,Calm,Calm,-,N/A,,Clear,0,2013-07-30 06:53:00
3:53 AM,54.0,52.0,93,30.16,10.0,WSW,4.6,-,N/A,,Clear,250,2013-07-30 07:53:00
4:28 AM,55.4,51.8,88,30.18,10.0,WSW,5.8,-,N/A,,Mostly Cloudy,240,2013-07-30 08:28:00
4:49 AM,53.6,51.8,94,30.18,10.0,West,5.8,-,N/A,,Scattered Clouds,260,2013-07-30 08:49:00
4:53 AM,54.0,52.0,93,30.17,10.0,West,5.8,-,N/A,,Partly Cloudy,260,2013-07-30 08:53:00
5:53 AM,55.0,51.1,86,30.17,10.0,West,4.6,-,N/A,,Clear,270,2013-07-30 09:53:00
6:53 AM,55.0,52.0,89,30.19,10.0,West,5.8,-,N/A,,Clear,260,2013-07-30 10:53:00
7:53 AM,57.0,53.1,87,30.21,10.0,West,6.9,-,N/A,,Clear,270,2013-07-30 11:53:00
8:53 AM,61.0,54.0,78,30.21,10.0,WNW,8.1,-,N/A,,Clear,290,2013-07-30 12:53:00
9:53 AM,64.0,55.0,73,30.22,10.0,West,9.2,-,N/A,,Partly Cloudy,280,2013-07-30 13:53:00
10:16 AM,64.4,53.6,68,30.22,10.0,Variable,6.9,-,N/A,,Mostly Cloudy,0,2013-07-30 14:16:00
10:33 AM,66.2,53.6,64,30.22,10.0,West,8.1,-,N/A,,Mostly Cloudy,280,2013-07-30 14:33:00
10:53 AM,68.0,54.0,61,30.21,10.0,NNW,6.9,-,N/A,,Mostly Cloudy,330,2013-07-30 14:53:00
11:53 AM,66.9,53.1,61,30.21,10.0,NW,8.1,-,N/A,,Mostly Cloudy,320,2013-07-30 15:53:00
12:53 PM,70.0,53.1,55,30.19,10.0,Variable,6.9,-,N/A,,Overcast,0,2013-07-30 16:53:00
1:53 PM,70.0,52.0,53,30.19,10.0,North,10.4,-,N/A,,Mostly Cloudy,350,2013-07-30 17:53:00
2:53 PM,71.1,51.1,49,30.17,10.0,NNW,9.2,-,N/A,,Mostly Cloudy,330,2013-07-30 18:53:00
3:53 PM,69.1,52.0,54,30.17,10.0,West,9.2,-,N/A,,Overcast,280,2013-07-30 19:53:00
4:53 PM,69.1,53.1,57,30.17,10.0,Variable,4.6,-,N/A,,Overcast,0,2013-07-30 20:53:00
5:53 PM,69.1,54.0,58,30.17,10.0,West,5.8,-,N/A,,Mostly Cloudy,280,2013-07-30 21:53:00
6:53 PM,68.0,54.0,61,30.17,10.0,West,6.9,-,N/A,,Overcast,280,2013-07-30 22:53:00
7:53 PM,66.9,54.0,63,30.17,10.0,WNW,3.5,-,N/A,,Scattered Clouds,290,2013-07-30 23:53:00
8:53 PM,66.0,54.0,65,30.17,10.0,Calm,Calm,-,N/A,,Clear,0,2013-07-31 00:53:00
9:53 PM,64.9,54.0,68,30.17,10.0,Calm,Calm,-,N/A,,Clear,0,2013-07-31 01:53:00
10:53 PM,64.0,54.0,70,30.18,10.0,Calm,Calm,-,N/A,,Clear,0,2013-07-31 02:53:00
11:53 PM,63.0,54.0,72,30.18,10.0,WSW,3.5,-,N/A,,Clear,250,2013-07-31 03:53:00